HVN6161 VVPB-VVTS

Flight info

Callsign HVN6161
Flight time 0h 59m
Altitude 32000
Route NAKHE1A NAKHE SADIN Q1 DOVIN DOVIN5E
Aircraft A20N/M-SDE2E3FGHIRWXY/LB1

Departure

Time 2026-04-22 15:41
Airport Phu Bai International Airport (VVPB)

Arrival

Time 2026-04-22 16:40
Airport Tan Son Nhat International Airport (VVTS)
Time Latitude Longitude Altitude Speed Heading
2026-04-22 15:09 16.39732 107.70381 45 ft 0 kts 183°
2026-04-22 15:32 16.39744 107.70382 48 ft 2 kts 185°
2026-04-22 15:32 16.39760 107.70384 48 ft 2 kts 188°
2026-04-22 15:32 16.39776 107.70387 44 ft 2 kts 193°
2026-04-22 15:32 16.39792 107.70391 45 ft 2 kts 200°
2026-04-22 15:33 16.39807 107.70398 45 ft 2 kts 212°
2026-04-22 15:33 16.39819 107.70409 47 ft 2 kts 235°
2026-04-22 15:33 16.39826 107.70425 44 ft 2 kts 262°
2026-04-22 15:33 16.39827 107.70436 44 ft 1 kts 272°
2026-04-22 15:34 16.39827 107.70438 44 ft 0 kts 273°
2026-04-22 15:35 16.39827 107.70434 44 ft 2 kts 273°
2026-04-22 15:35 16.39828 107.70408 46 ft 5 kts 272°
2026-04-22 15:35 16.39830 107.70360 48 ft 8 kts 272°
2026-04-22 15:35 16.39830 107.70347 48 ft 0 kts 272°
2026-04-22 15:36 16.39831 107.70337 48 ft 3 kts 274°
2026-04-22 15:36 16.39833 107.70303 48 ft 6 kts 274°
2026-04-22 15:36 16.39843 107.70252 46 ft 8 kts 301°
2026-04-22 15:36 16.39904 107.70241 48 ft 11 kts
2026-04-22 15:37 16.39988 107.70247 46 ft 14 kts
2026-04-22 15:37 16.40061 107.70297 48 ft 14 kts 79°
2026-04-22 15:37 16.40060 107.70412 47 ft 17 kts 93°
2026-04-22 15:37 16.40052 107.70545 47 ft 20 kts 93°
2026-04-22 15:38 16.40045 107.70694 47 ft 22 kts 93°
2026-04-22 15:38 16.40027 107.71025 48 ft 24 kts 94°
2026-04-22 15:38 16.40016 107.71203 48 ft 25 kts 88°
2026-04-22 15:39 16.40011 107.71382 49 ft 14 kts 93°
2026-04-22 15:39 16.40005 107.71440 49 ft 9 kts 96°
2026-04-22 15:39 16.39995 107.71512 48 ft 11 kts 109°
2026-04-22 15:39 16.39962 107.71591 49 ft 13 kts 71°
2026-04-22 15:40 16.40002 107.71562 48 ft 11 kts 266°
2026-04-22 15:40 16.40006 107.71425 49 ft 44 kts 273°
2026-04-22 15:40 16.40035 107.70856 47 ft 110 kts 272°
2026-04-22 15:40 16.40084 107.69884 53 ft 157 kts 272°
2026-04-22 15:41 16.40124 107.68799 663 ft 148 kts 270°
2026-04-22 15:41 16.40167 107.67648 1000 ft 165 kts 270°
2026-04-22 15:41 16.40242 107.66455 1625 ft 164 kts 271°
2026-04-22 15:41 16.40322 107.65245 2065 ft 175 kts 271°
2026-04-22 15:42 16.40400 107.63931 2387 ft 194 kts 271°
2026-04-22 15:42 16.40481 107.62449 2722 ft 216 kts 271°
2026-04-22 15:42 16.40569 107.60799 3095 ft 240 kts 271°
2026-04-22 15:42 16.40400 107.59011 3544 ft 259 kts 249°
2026-04-22 15:43 16.39387 107.57442 4207 ft 267 kts 220°
2026-04-22 15:43 16.37745 107.56548 5035 ft 271 kts 193°
2026-04-22 15:43 16.35853 107.56483 5887 ft 275 kts 173°
2026-04-22 15:43 16.33958 107.56859 6700 ft 279 kts 168°
2026-04-22 15:44 16.32040 107.57291 7496 ft 283 kts 169°
2026-04-22 15:44 16.30107 107.57657 8254 ft 288 kts 171°
2026-04-22 15:44 16.28082 107.57963 9058 ft 293 kts 173°
2026-04-22 15:44 16.26046 107.58224 9821 ft 297 kts 174°
2026-04-22 15:45 16.23967 107.58466 10418 ft 308 kts 174°
2026-04-22 15:45 16.21787 107.58710 10649 ft 330 kts 174°
2026-04-22 15:45 16.19399 107.58977 10937 ft 349 kts 174°
2026-04-22 15:45 16.17001 107.59289 11592 ft 353 kts 170°
2026-04-22 15:46 16.14615 107.59941 12315 ft 357 kts 161°
2026-04-22 15:46 16.12326 107.60985 12980 ft 361 kts 152°
2026-04-22 15:46 16.10091 107.62228 13616 ft 366 kts 153°
2026-04-22 15:46 16.07828 107.63473 14233 ft 370 kts 153°
2026-04-22 15:47 16.05548 107.64720 14832 ft 373 kts 153°
2026-04-22 15:47 16.03237 107.65981 15449 ft 375 kts 153°
2026-04-22 15:47 16.00908 107.67253 15989 ft 380 kts 153°
2026-04-22 15:47 15.98560 107.68533 16596 ft 382 kts 153°
2026-04-22 15:48 15.96188 107.69827 17138 ft 386 kts 152°
2026-04-22 15:48 15.93796 107.71131 17708 ft 388 kts 152°
2026-04-22 15:48 15.91397 107.72439 18265 ft 391 kts 152°
2026-04-22 15:48 15.88979 107.73757 18729 ft 394 kts 152°
2026-04-22 15:49 15.86544 107.75083 19196 ft 396 kts 152°
2026-04-22 15:49 15.84127 107.76400 19644 ft 399 kts 152°
2026-04-22 15:49 15.81666 107.77740 20123 ft 402 kts 152°
2026-04-22 15:49 15.79175 107.79097 20591 ft 404 kts 152°
2026-04-22 15:50 15.76675 107.80459 21057 ft 406 kts 152°
2026-04-22 15:50 15.74165 107.81825 21519 ft 409 kts 152°
2026-04-22 15:50 15.71636 107.83201 21983 ft 412 kts 152°
2026-04-22 15:50 15.69083 107.84590 22434 ft 414 kts 152°
2026-04-22 15:51 15.66525 107.85982 22891 ft 417 kts 151°
2026-04-22 15:51 15.63945 107.87385 23319 ft 420 kts 151°
2026-04-22 15:51 15.61348 107.88796 23674 ft 422 kts 151°
2026-04-22 15:51 15.58739 107.90214 24055 ft 425 kts 151°
2026-04-22 15:52 15.56145 107.91624 24388 ft 427 kts 151°
2026-04-22 15:52 15.53506 107.93057 24734 ft 430 kts 151°
2026-04-22 15:52 15.50851 107.94499 25075 ft 432 kts 151°
2026-04-22 15:52 15.48175 107.95952 25408 ft 435 kts 151°
2026-04-22 15:53 15.45483 107.97413 25772 ft 437 kts 151°
2026-04-22 15:53 15.42786 107.98876 26073 ft 440 kts 151°
2026-04-22 15:53 15.40055 108.00357 26387 ft 442 kts 151°
2026-04-22 15:53 15.37321 108.01840 26715 ft 444 kts 151°
2026-04-22 15:54 15.34578 108.03327 27005 ft 447 kts 151°
2026-04-22 15:54 15.31815 108.04825 27308 ft 449 kts 151°
2026-04-22 15:54 15.29039 108.06329 27643 ft 451 kts 151°
2026-04-22 15:54 15.26248 108.07841 27924 ft 454 kts 151°
2026-04-22 15:55 15.23446 108.09358 28223 ft 456 kts 151°
2026-04-22 15:55 15.20633 108.10881 28523 ft 457 kts 151°
2026-04-22 15:55 15.17810 108.12408 28782 ft 460 kts 151°
2026-04-22 15:55 15.14968 108.13946 29054 ft 462 kts 151°
2026-04-22 15:56 15.12098 108.15491 29320 ft 464 kts 153°
2026-04-22 15:56 15.09085 108.16725 29552 ft 468 kts 162°
2026-04-22 15:56 15.05894 108.17444 29795 ft 472 kts 172°
2026-04-22 15:56 15.02586 108.17619 30039 ft 476 kts 181°
2026-04-22 15:57 14.99321 108.17530 30299 ft 477 kts 180°
2026-04-22 15:57 14.95997 108.17451 30558 ft 478 kts 180°
2026-04-22 15:57 14.92669 108.17377 30807 ft 480 kts 180°
2026-04-22 15:57 14.89319 108.17305 31069 ft 481 kts 180°
2026-04-22 15:58 14.85963 108.17231 31300 ft 483 kts 180°
2026-04-22 15:58 14.82609 108.17158 31642 ft 482 kts 180°
2026-04-22 15:58 14.79254 108.17084 31876 ft 481 kts 180°
2026-04-22 15:58 14.75921 108.17011 31940 ft 480 kts 180°
2026-04-22 15:59 14.69244 108.16863 31943 ft 479 kts 180°
2026-04-22 15:59 14.62576 108.16717 31924 ft 479 kts 180°
2026-04-22 16:00 14.55880 108.16569 31934 ft 485 kts 180°
2026-04-22 16:00 14.49037 108.16419 31932 ft 498 kts 180°
2026-04-22 16:01 14.42114 108.16266 31918 ft 497 kts 180°
2026-04-22 16:01 14.35225 108.16115 31922 ft 500 kts 180°
2026-04-22 16:02 14.28225 108.15961 31934 ft 503 kts 180°
2026-04-22 16:02 14.21224 108.15810 31914 ft 504 kts 180°
2026-04-22 16:03 14.14192 108.15660 31911 ft 505 kts 180°
2026-04-22 16:03 14.07168 108.15511 31909 ft 505 kts 180°
2026-04-22 16:04 14.00143 108.15361 31918 ft 505 kts 180°
2026-04-22 16:04 13.93115 108.15208 31901 ft 505 kts 180°
2026-04-22 16:05 13.86089 108.15053 31905 ft 505 kts 180°
2026-04-22 16:05 13.79098 108.14899 31903 ft 505 kts 180°
2026-04-22 16:06 13.72057 108.14745 31891 ft 505 kts 180°
2026-04-22 16:06 13.65024 108.14591 31890 ft 505 kts 180°
2026-04-22 16:07 13.57993 108.14437 31882 ft 505 kts 180°
2026-04-22 16:07 13.50963 108.14283 31879 ft 505 kts 180°
2026-04-22 16:08 13.43942 108.14130 31876 ft 505 kts 180°
2026-04-22 16:08 13.36952 108.13977 31877 ft 505 kts 180°
2026-04-22 16:09 13.29929 108.13820 31874 ft 505 kts 180°
2026-04-22 16:09 13.22903 108.13649 31870 ft 505 kts 180°
2026-04-22 16:10 13.15872 108.13478 31876 ft 503 kts 180°
2026-04-22 16:10 13.08865 108.13310 31881 ft 504 kts 180°
2026-04-22 16:11 13.01891 108.13142 31877 ft 504 kts 180°
2026-04-22 16:11 12.94877 108.12974 31881 ft 504 kts 180°
2026-04-22 16:12 12.87861 108.12806 31876 ft 504 kts 180°
2026-04-22 16:12 12.82040 108.12667 31882 ft 501 kts 180°
2026-04-22 16:13 12.75063 108.12500 31873 ft 501 kts 180°
2026-04-22 16:13 12.68080 108.12333 31884 ft 501 kts 180°
2026-04-22 16:14 12.59965 108.12158 31892 ft 501 kts 179°
2026-04-22 16:14 12.52984 108.12024 31887 ft 501 kts 179°
2026-04-22 16:15 12.47203 108.11910 31893 ft 499 kts 179°
2026-04-22 16:15 12.40247 108.11772 31906 ft 499 kts 179°
2026-04-22 16:16 12.33281 108.11633 31906 ft 499 kts 179°
2026-04-22 16:16 12.26329 108.11495 31919 ft 499 kts 179°
2026-04-22 16:17 12.19386 108.11356 31914 ft 499 kts 179°
2026-04-22 16:17 12.12442 108.11218 31931 ft 497 kts 179°
2026-04-22 16:18 12.05527 108.11080 31929 ft 496 kts 179°
2026-04-22 16:18 12.02128 108.11012 31933 ft 480 kts 179°
2026-04-22 16:18 11.98838 108.10945 31938 ft 468 kts 179°
2026-04-22 16:19 11.92378 108.10148 31617 ft 478 kts 197°
2026-04-22 16:19 11.89305 108.08822 31242 ft 481 kts 208°
2026-04-22 16:19 11.86508 108.06926 30551 ft 485 kts 216°
2026-04-22 16:20 11.83864 108.04779 29864 ft 485 kts 218°
2026-04-22 16:20 11.81269 108.02612 29242 ft 479 kts 218°
2026-04-22 16:20 11.78687 108.00478 28645 ft 473 kts 218°
2026-04-22 16:20 11.76128 107.98395 28054 ft 468 kts 217°
2026-04-22 16:21 11.73586 107.96349 27463 ft 463 kts 217°
2026-04-22 16:21 11.71060 107.94329 26883 ft 458 kts 217°
2026-04-22 16:21 11.68589 107.92357 26309 ft 454 kts 217°
2026-04-22 16:21 11.66103 107.90376 25723 ft 450 kts 217°
2026-04-22 16:22 11.61249 107.86507 24529 ft 445 kts 217°
2026-04-22 16:22 11.58824 107.84575 23976 ft 441 kts 217°
2026-04-22 16:22 11.56417 107.82657 23391 ft 439 kts 217°
2026-04-22 16:23 11.51659 107.78867 22249 ft 429 kts 217°
2026-04-22 16:23 11.49317 107.77002 21692 ft 424 kts 217°
2026-04-22 16:23 11.46997 107.75156 21126 ft 420 kts 217°
2026-04-22 16:24 11.44708 107.73334 20560 ft 416 kts 217°
2026-04-22 16:24 11.40178 107.69729 19442 ft 409 kts 217°
2026-04-22 16:24 11.37966 107.67969 18895 ft 406 kts 217°
2026-04-22 16:25 11.35744 107.66202 18299 ft 405 kts 217°
2026-04-22 16:25 11.31343 107.62705 17186 ft 396 kts 218°
2026-04-22 16:25 11.29173 107.60980 16649 ft 393 kts 218°
2026-04-22 16:26 11.27032 107.59279 16102 ft 389 kts 218°
2026-04-22 16:26 11.24902 107.57587 15574 ft 386 kts 218°
2026-04-22 16:26 11.22793 107.55912 15045 ft 383 kts 218°
2026-04-22 16:26 11.20694 107.54245 14499 ft 381 kts 218°
2026-04-22 16:27 11.18608 107.52589 13969 ft 379 kts 218°
2026-04-22 16:27 11.16540 107.50947 13406 ft 378 kts 218°
2026-04-22 16:27 11.14484 107.49315 12935 ft 372 kts 218°
2026-04-22 16:27 11.12446 107.47697 12428 ft 369 kts 218°
2026-04-22 16:28 11.10437 107.46102 11916 ft 365 kts 218°
2026-04-22 16:28 11.08445 107.44522 11561 ft 357 kts 218°
2026-04-22 16:28 11.06523 107.42997 11432 ft 344 kts 218°
2026-04-22 16:28 11.04678 107.41533 11337 ft 329 kts 218°
2026-04-22 16:29 11.02917 107.40126 11232 ft 316 kts 221°
2026-04-22 16:29 11.01518 107.38502 11028 ft 307 kts 238°
2026-04-22 16:29 11.00655 107.36488 10614 ft 306 kts 254°
2026-04-22 16:29 11.00065 107.34436 10204 ft 306 kts 253°
2026-04-22 16:30 10.99654 107.33042 9954 ft 305 kts 253°
2026-04-22 16:30 10.98845 107.30328 9506 ft 300 kts 253°
2026-04-22 16:30 10.98241 107.28302 9066 ft 300 kts 253°
2026-04-22 16:30 10.97642 107.26289 8804 ft 293 kts 253°
2026-04-22 16:31 10.97050 107.24290 8681 ft 299 kts 253°
2026-04-22 16:31 10.96450 107.22263 8558 ft 297 kts 253°
2026-04-22 16:31 10.95858 107.20262 8434 ft 294 kts 253°
2026-04-22 16:31 10.95269 107.18270 8307 ft 294 kts 253°
2026-04-22 16:32 10.94678 107.16273 8013 ft 296 kts 253°
2026-04-22 16:32 10.94126 107.14411 7668 ft 296 kts 253°
2026-04-22 16:32 10.93543 107.12436 7742 ft 290 kts 253°
2026-04-22 16:32 10.92964 107.10479 7373 ft 288 kts 253°
2026-04-22 16:33 10.92388 107.08537 6688 ft 287 kts 253°
2026-04-22 16:33 10.91802 107.06573 6177 ft 292 kts 254°
2026-04-22 16:33 10.91219 107.04608 5841 ft 288 kts 253°
2026-04-22 16:33 10.90646 107.02666 5478 ft 286 kts 253°
2026-04-22 16:34 10.90074 107.00741 5116 ft 284 kts 253°
2026-04-22 16:34 10.89504 106.98820 4756 ft 282 kts 253°
2026-04-22 16:34 10.88939 106.96916 4390 ft 281 kts 252°
2026-04-22 16:34 10.88379 106.95027 4088 ft 276 kts 252°
2026-04-22 16:35 10.87835 106.93187 3942 ft 265 kts 252°
2026-04-22 16:35 10.87328 106.91420 3834 ft 254 kts 257°
2026-04-22 16:35 10.87178 106.89693 3752 ft 244 kts 272°
2026-04-22 16:35 10.87420 106.88023 3635 ft 233 kts 279°
2026-04-22 16:36 10.87697 106.86441 3538 ft 221 kts 278°
2026-04-22 16:36 10.87947 106.84922 3335 ft 216 kts 278°
2026-04-22 16:36 10.88178 106.83425 3117 ft 212 kts 274°
2026-04-22 16:36 10.88148 106.81946 2850 ft 207 kts 258°
2026-04-22 16:37 10.87803 106.80539 2422 ft 204 kts 249°
2026-04-22 16:37 10.87325 106.79201 2132 ft 193 kts 246°
2026-04-22 16:37 10.86870 106.78001 2003 ft 171 kts 245°
2026-04-22 16:37 10.86472 106.76939 2007 ft 159 kts 245°
2026-04-22 16:38 10.86073 106.75884 1985 ft 158 kts 245°
2026-04-22 16:38 10.85672 106.74818 1914 ft 162 kts 245°
2026-04-22 16:38 10.85277 106.73763 1909 ft 158 kts 246°
2026-04-22 16:38 10.84883 106.72703 1713 ft 158 kts 245°
2026-04-22 16:39 10.84501 106.71653 1368 ft 159 kts 246°
2026-04-22 16:39 10.84120 106.70598 1015 ft 156 kts 246°
2026-04-22 16:39 10.83754 106.69586 697 ft 149 kts 244°
2026-04-22 16:39 10.83386 106.68643 451 ft 141 kts 246°
2026-04-22 16:40 10.83024 106.67742 304 ft 141 kts 242°
2026-04-22 16:40 10.82668 106.66799 139 ft 143 kts 246°
2026-04-22 16:40 10.82064 106.65211 38 ft 35 kts 250°
2026-04-22 16:41 10.82051 106.65174 38 ft 5 kts 250°
2026-04-22 16:41 10.81994 106.65015 38 ft 33 kts 250°
2026-04-22 16:41 10.81906 106.64789 39 ft 35 kts 248°
2026-04-22 16:41 10.81815 106.64551 39 ft 36 kts 249°
2026-04-22 16:42 10.81668 106.64348 38 ft 37 kts 219°
2026-04-22 16:42 10.81512 106.64297 39 ft 17 kts 151°
2026-04-22 16:42 10.81399 106.64345 39 ft 19 kts 159°
2026-04-22 16:42 10.81269 106.64397 39 ft 21 kts 150°
2026-04-22 16:43 10.81276 106.64516 39 ft 19 kts 67°
2026-04-22 16:43 10.81330 106.64649 40 ft 21 kts 68°
2026-04-22 16:43 10.81380 106.64798 39 ft 23 kts 71°
2026-04-22 16:43 10.81437 106.64955 40 ft 17 kts 70°
2026-04-22 16:44 10.81441 106.64972 40 ft 3 kts 77°
2026-04-22 16:44 10.81432 106.65002 40 ft 6 kts 129°
2026-04-22 16:44 10.81387 106.65028 39 ft 9 kts 156°
2026-04-22 16:44 10.81318 106.65052 39 ft 12 kts 163°
2026-04-22 16:45 10.81250 106.65097 39 ft 12 kts 99°
2026-04-22 16:45 10.81278 106.65177 37 ft 13 kts 69°
2026-04-22 16:45 10.81308 106.65258 38 ft 10 kts 70°
2026-04-22 16:45 10.81272 106.65306 39 ft 10 kts 158°
2026-04-22 16:46 10.81247 106.65316 39 ft 0 kts 162°